カタログに戻る

STARLINK-33651

運用中通信VLEO
NORAD 63588·PAYLOAD·🇺🇸 United States

打ち上げ Apr 14, 2025 から Cape Canaveral Space Force Station

Loading…

次のパス (今後24時間)

TLE

最新Source: CelesTrak SupGP

元期: Sep 15, 2026, 03:37 UTC

1 63588C 25076V   26258.15118056  .00044874  00000+0  16246-2 0  2585
2 63588  43.0033 331.7277 0001815 270.7273 171.0156 15.27571358    14

AllMySatでSTARLINK-33651をリアルタイム追跡

Download on the App Store